Time,TemperatureF,DewpointF,PressureIn,WindDirection,WindDirectionDegrees,WindSpeedMPH,WindSpeedGustMPH,Humidity,HourlyPrecipIn,Conditions,Clouds,dailyrainin,SolarRadiationWatts/m^2,SoftwareType,DateUTC
2013-06-26 00:01:00,70.8,65.0,29.83,WSW,257,0.8,6.9,82,0.00,RA,OVC,0.00,0.0,WeatherDisplay:10.37,2013-06-26 04:01:00,
2013-06-26 00:06:00,70.8,65.0,29.83,WSW,257,0.2,1.2,82,0.00,RA,OVC,0.00,0.0,WeatherDisplay:10.37,2013-06-26 04:06:00,
2013-06-26 00:11:00,70.7,64.9,29.82,WSW,257,0.0,1.2,82,0.00,OVC,,0.00,0.0,WeatherDisplay:10.37,2013-06-26 04:11:00,
2013-06-26 00:16:00,70.6,64.8,29.83,WSW,257,0.0,1.2,82,0.00,OVC,,0.00,0.0,WeatherDisplay:10.37,2013-06-26 04:16:00,
2013-06-26 00:21:00,70.6,64.8,29.82,WSW,257,0.0,0.0,82,0.00,SCT,OVC,0.00,0.0,WeatherDisplay:10.37,2013-06-26 04:21:00,
2013-06-26 00:26:00,70.6,65.2,29.82,WSW,257,0.1,1.2,83,0.00,SCT,OVC,0.00,0.0,WeatherDisplay:10.37,2013-06-26 04:26:00,
2013-06-26 00:31:00,70.5,65.1,29.82,WSW,257,0.0,1.0,83,0.00,SCT,OVC,0.00,0.0,WeatherDisplay:10.37,2013-06-26 04:31:00,
2013-06-26 00:36:00,70.4,65.0,29.82,WSW,257,0.1,1.0,83,0.00,SCT,OVC,0.00,0.0,WeatherDisplay:10.37,2013-06-26 04:36:00,
2013-06-26 00:41:00,70.4,65.0,29.82,WSW,257,0.0,0.0,83,0.00,SCT,OVC,0.00,0.0,WeatherDisplay:10.37,2013-06-26 04:41:00,
2013-06-26 00:46:00,70.4,65.0,29.82,WSW,257,0.1,2.3,83,0.00,SCT,OVC,0.00,0.0,WeatherDisplay:10.37,2013-06-26 04:46:00,
2013-06-26 00:51:00,70.3,65.2,29.82,WSW,257,0.0,0.0,84,0.00,SCT,OVC,0.00,0.0,WeatherDisplay:10.37,2013-06-26 04:51:00,
2013-06-26 00:56:00,70.2,65.1,29.82,WSW,257,0.6,4.0,84,0.00,SCT,OVC,0.00,0.0,WeatherDisplay:10.37,2013-06-26 04:56:00,
2013-06-26 01:01:00,70.1,65.0,29.82,WSW,257,3.0,5.0,84,0.00,SCT,OVC,0.00,0.0,WeatherDisplay:10.37,2013-06-26 05:01:00,
2013-06-26 01:06:00,70.0,64.9,29.82,West,260,1.6,6.0,84,0.00,SCT,OVC,0.00,0.0,WeatherDisplay:10.37,2013-06-26 05:06:00,
2013-06-26 01:11:00,69.9,64.8,29.82,West,260,0.5,3.5,84,0.00,SCT,OVC,0.00,0.0,WeatherDisplay:10.37,2013-06-26 05:11:00,
2013-06-26 01:16:00,69.8,64.7,29.83,West,260,0.0,1.2,84,0.00,SCT,OVC,0.00,0.0,WeatherDisplay:10.37,2013-06-26 05:16:00,
2013-06-26 01:21:00,69.8,64.7,29.83,West,260,1.3,4.0,84,0.00,OVC,,0.00,0.0,WeatherDisplay:10.37,2013-06-26 05:21:00,
2013-06-26 01:26:00,69.7,64.6,29.83,West,260,1.8,6.9,84,0.00,OVC,,0.00,0.0,WeatherDisplay:10.37,2013-06-26 05:26:00,
2013-06-26 01:31:00,69.8,64.7,29.83,West,259,0.3,3.5,84,0.00,OVC,,0.00,0.0,WeatherDisplay:10.37,2013-06-26 05:31:00,
2013-06-26 01:36:00,69.7,64.6,29.83,West,259,0.8,3.5,84,0.00,OVC,,0.00,0.0,WeatherDisplay:10.37,2013-06-26 05:36:00,
2013-06-26 01:41:00,69.7,64.6,29.83,West,259,1.8,6.0,84,0.00,OVC,,0.00,0.0,WeatherDisplay:10.37,2013-06-26 05:41:00,
2013-06-26 01:46:00,69.7,64.6,29.83,West,259,1.2,6.9,84,0.00,OVC,,0.00,0.0,WeatherDisplay:10.37,2013-06-26 05:46:00,
2013-06-26 01:51:00,69.7,64.6,29.83,West,259,1.2,6.0,84,0.00,OVC,,0.00,0.0,WeatherDisplay:10.37,2013-06-26 05:51:00,
2013-06-26 01:56:00,69.7,64.6,29.83,West,259,3.3,8.1,84,0.00,OVC,,0.00,0.0,WeatherDisplay:10.37,2013-06-26 05:56:00,
2013-06-26 02:01:00,69.8,64.7,29.83,West,259,1.0,4.0,84,0.00,OVC,,0.00,0.0,WeatherDisplay:10.37,2013-06-26 06:01:00,
2013-06-26 02:06:00,69.9,64.8,29.83,WSW,256,3.3,8.1,84,0.00,OVC,,0.00,0.0,WeatherDisplay:10.37,2013-06-26 06:06:00,
2013-06-26 02:11:00,70.0,64.6,29.83,West,267,6.1,12.0,83,0.00,OVC,,0.00,0.0,WeatherDisplay:10.37,2013-06-26 06:11:00,
2013-06-26 02:16:00,70.1,64.7,29.82,WSW,257,2.0,11.5,83,0.00,OVC,,0.00,0.0,WeatherDisplay:10.37,2013-06-26 06:16:00,
2013-06-26 02:21:00,70.2,64.8,29.82,WSW,255,3.0,9.2,83,0.00,OVC,,0.00,0.0,WeatherDisplay:10.37,2013-06-26 06:21:00,
2013-06-26 02:26:00,70.2,64.8,29.82,WSW,254,3.6,11.5,83,0.00,OVC,,0.00,0.0,WeatherDisplay:10.37,2013-06-26 06:26:00,
2013-06-26 02:31:00,70.2,64.8,29.82,WSW,256,4.0,11.5,83,0.00,OVC,,0.00,0.0,WeatherDisplay:10.37,2013-06-26 06:31:00,
2013-06-26 02:36:00,70.3,64.9,29.82,WSW,250,3.0,11.0,83,0.00,OVC,,0.00,0.0,WeatherDisplay:10.37,2013-06-26 06:36:00,
2013-06-26 02:41:00,70.4,65.0,29.82,WSW,258,4.1,11.5,83,0.00,OVC,,0.00,0.0,WeatherDisplay:10.37,2013-06-26 06:41:00,
2013-06-26 02:46:00,70.4,65.0,29.82,WSW,251,6.7,10.4,83,0.00,OVC,,0.00,0.0,WeatherDisplay:10.37,2013-06-26 06:46:00,
2013-06-26 02:51:00,70.5,65.1,29.82,West,263,1.3,11.5,83,0.00,OVC,,0.00,0.0,WeatherDisplay:10.37,2013-06-26 06:51:00,
2013-06-26 02:56:00,70.6,65.2,29.81,West,262,4.3,7.0,83,0.00,OVC,,0.00,0.0,WeatherDisplay:10.37,2013-06-26 06:56:00,
2013-06-26 03:01:00,70.6,65.2,29.81,WSW,256,4.9,13.8,83,0.00,OVC,,0.00,0.0,WeatherDisplay:10.37,2013-06-26 07:01:00,
2013-06-26 03:06:00,70.7,65.3,29.81,WSW,253,2.7,6.9,83,0.00,OVC,,0.00,0.0,WeatherDisplay:10.37,2013-06-26 07:06:00,
2013-06-26 03:11:00,70.7,65.3,29.81,WSW,255,3.3,8.1,83,0.00,OVC,,0.00,0.0,WeatherDisplay:10.37,2013-06-26 07:11:00,
2013-06-26 03:16:00,70.7,65.3,29.81,West,265,3.9,9.2,83,0.00,OVC,,0.00,0.0,WeatherDisplay:10.37,2013-06-26 07:16:00,
2013-06-26 03:21:00,70.7,65.3,29.81,West,265,1.9,6.0,83,0.00,OVC,,0.00,0.0,WeatherDisplay:10.37,2013-06-26 07:21:00,
2013-06-26 03:26:00,70.7,65.3,29.81,WSW,252,0.9,3.5,83,0.00,OVC,,0.00,0.0,WeatherDisplay:10.37,2013-06-26 07:26:00,
2013-06-26 03:31:00,70.7,65.3,29.81,West,259,4.0,9.2,83,0.00,OVC,,0.00,0.0,WeatherDisplay:10.37,2013-06-26 07:31:00,
2013-06-26 03:36:00,70.7,65.3,29.81,WSW,251,4.5,10.4,83,0.00,OVC,,0.00,0.0,WeatherDisplay:10.37,2013-06-26 07:36:00,
2013-06-26 03:41:00,70.7,65.3,29.81,WSW,252,4.6,8.1,83,0.00,OVC,,0.00,0.0,WeatherDisplay:10.37,2013-06-26 07:41:00,
2013-06-26 03:46:00,70.6,65.2,29.80,WSW,254,3.1,6.9,83,0.00,OVC,,0.00,0.0,WeatherDisplay:10.37,2013-06-26 07:46:00,
2013-06-26 03:51:00,70.6,65.2,29.80,WSW,254,2.2,6.9,83,0.00,OVC,,0.00,0.0,WeatherDisplay:10.37,2013-06-26 07:51:00,
2013-06-26 03:56:00,70.4,65.3,29.80,WSW,248,1.9,8.0,84,0.00,OVC,,0.00,0.0,WeatherDisplay:10.37,2013-06-26 07:56:00,
2013-06-26 04:01:00,70.4,65.3,29.80,WSW,248,1.2,4.0,84,0.00,OVC,,0.00,0.0,WeatherDisplay:10.37,2013-06-26 08:01:00,
2013-06-26 04:06:00,70.3,65.2,29.80,WSW,248,1.7,4.0,84,0.00,OVC,,0.00,0.0,WeatherDisplay:10.37,2013-06-26 08:06:00,
2013-06-26 04:11:00,70.3,65.2,29.81,WSW,248,1.6,7.0,84,0.00,OVC,,0.00,0.0,WeatherDisplay:10.37,2013-06-26 08:11:00,
2013-06-26 04:16:00,70.2,65.1,29.81,WSW,250,1.4,4.0,84,0.00,OVC,,0.00,0.0,WeatherDisplay:10.37,2013-06-26 08:16:00,
2013-06-26 04:21:00,70.2,65.1,29.81,WSW,249,0.6,4.0,84,0.00,OVC,,0.00,0.0,WeatherDisplay:10.37,2013-06-26 08:21:00,
2013-06-26 04:26:00,70.2,65.5,29.81,WSW,252,2.7,8.1,85,0.00,OVC,,0.00,0.0,WeatherDisplay:10.37,2013-06-26 08:26:00,
2013-06-26 04:31:00,70.2,65.1,29.81,WSW,251,1.5,7.0,84,0.00,OVC,,0.00,0.0,WeatherDisplay:10.37,2013-06-26 08:31:00,
2013-06-26 04:36:00,70.2,65.5,29.81,WSW,250,3.6,7.0,85,0.00,OVC,,0.00,0.0,WeatherDisplay:10.37,2013-06-26 08:36:00,
2013-06-26 04:41:00,70.2,65.5,29.81,WSW,250,2.6,7.0,85,0.00,OVC,,0.00,0.0,WeatherDisplay:10.37,2013-06-26 08:41:00,
2013-06-26 04:46:00,70.2,65.1,29.81,WSW,250,0.0,2.3,84,0.00,OVC,,0.00,0.0,WeatherDisplay:10.37,2013-06-26 08:46:00,
2013-06-26 04:51:00,70.2,65.5,29.81,WSW,251,3.6,8.1,85,0.00,OVC,,0.00,0.0,WeatherDisplay:10.37,2013-06-26 08:51:00,
2013-06-26 04:56:00,70.2,65.5,29.81,WSW,251,1.0,6.9,85,0.00,OVC,,0.00,0.0,WeatherDisplay:10.37,2013-06-26 08:56:00,
2013-06-26 05:01:00,70.2,65.5,29.81,WSW,244,3.3,5.0,85,0.00,OVC,,0.00,0.0,WeatherDisplay:10.37,2013-06-26 09:01:00,
2013-06-26 05:06:00,70.2,65.5,29.82,WSW,244,1.3,7.0,85,0.00,OVC,,0.00,0.0,WeatherDisplay:10.37,2013-06-26 09:06:00,
2013-06-26 05:11:00,70.2,65.5,29.82,WSW,249,3.1,9.2,85,0.00,OVC,,0.00,0.0,WeatherDisplay:10.37,2013-06-26 09:11:00,
2013-06-26 05:16:00,70.2,65.5,29.82,WSW,250,2.3,9.2,85,0.00,OVC,,0.00,0.0,WeatherDisplay:10.37,2013-06-26 09:16:00,
2013-06-26 05:21:00,70.2,65.5,29.82,WSW,249,1.3,4.6,85,0.00,OVC,,0.00,0.0,WeatherDisplay:10.37,2013-06-26 09:21:00,
2013-06-26 05:26:00,70.2,65.1,29.82,WSW,249,1.3,8.1,84,0.00,OVC,,0.00,0.0,WeatherDisplay:10.37,2013-06-26 09:26:00,
2013-06-26 05:31:00,70.1,65.0,29.82,WSW,252,4.4,10.0,84,0.00,OVC,,0.00,0.0,WeatherDisplay:10.37,2013-06-26 09:31:00,
2013-06-26 05:36:00,70.1,65.0,29.82,WSW,252,2.1,5.0,84,0.00,OVC,,0.00,0.0,WeatherDisplay:10.37,2013-06-26 09:36:00,
2013-06-26 05:41:00,70.1,65.0,29.82,WSW,252,2.2,4.6,84,0.00,OVC,,0.00,0.0,WeatherDisplay:10.37,2013-06-26 09:41:00,
2013-06-26 05:46:00,70.1,65.0,29.82,WSW,251,0.9,8.1,84,0.00,OVC,,0.00,0.0,WeatherDisplay:10.37,2013-06-26 09:46:00,
2013-06-26 05:51:00,70.1,65.0,29.82,WSW,251,0.7,4.6,84,0.00,OVC,,0.00,0.0,WeatherDisplay:10.37,2013-06-26 09:51:00,
2013-06-26 05:56:00,70.0,64.9,29.82,WSW,251,1.7,6.9,84,0.00,OVC,,0.00,0.0,WeatherDisplay:10.37,2013-06-26 09:56:00,
2013-06-26 06:01:00,70.0,65.3,29.82,WSW,251,0.9,4.0,85,0.00,OVC,,0.00,0.0,WeatherDisplay:10.37,2013-06-26 10:01:00,
2013-06-26 06:06:00,70.0,64.9,29.82,SW,234,3.2,11.0,84,0.00,OVC,,0.00,0.0,WeatherDisplay:10.37,2013-06-26 10:06:00,
2013-06-26 06:11:00,70.0,64.9,29.83,West,271,6.6,11.5,84,0.00,OVC,,0.00,0.0,WeatherDisplay:10.37,2013-06-26 10:11:00,
2013-06-26 06:16:00,70.0,65.3,29.83,West,269,2.7,6.9,85,0.00,OVC,,0.00,5.0,WeatherDisplay:10.37,2013-06-26 10:16:00,
2013-06-26 06:21:00,70.0,65.3,29.83,WSW,250,7.7,14.0,85,0.00,OVC,,0.00,11.0,WeatherDisplay:10.37,2013-06-26 10:21:00,
2013-06-26 06:26:00,69.9,65.2,29.83,West,265,2.3,15.0,85,0.00,OVC,,0.00,12.0,WeatherDisplay:10.37,2013-06-26 10:26:00,
2013-06-26 06:31:00,69.9,65.2,29.82,WSW,245,2.7,10.4,85,0.00,OVC,,0.00,12.0,WeatherDisplay:10.37,2013-06-26 10:31:00,
2013-06-26 06:36:00,69.9,65.2,29.82,WSW,244,5.4,10.4,85,0.00,OVC,,0.00,9.0,WeatherDisplay:10.37,2013-06-26 10:36:00,
2013-06-26 06:41:00,69.8,65.1,29.83,WSW,254,6.8,14.0,85,0.00,OVC,,0.00,9.0,WeatherDisplay:10.37,2013-06-26 10:41:00,
2013-06-26 06:46:00,69.8,65.1,29.82,West,263,7.2,15.0,85,0.00,OVC,,0.00,11.0,WeatherDisplay:10.37,2013-06-26 10:46:00,
2013-06-26 06:51:00,69.8,65.1,29.82,SW,234,5.6,12.7,85,0.00,OVC,,0.00,9.0,WeatherDisplay:10.37,2013-06-26 10:51:00,
2013-06-26 06:56:00,69.8,65.4,29.83,West,280,5.6,16.1,86,0.00,OVC,,0.00,11.0,WeatherDisplay:10.37,2013-06-26 10:56:00,
2013-06-26 07:01:00,69.7,65.3,29.83,SW,223,3.8,6.9,86,0.00,OVC,,0.00,12.0,WeatherDisplay:10.37,2013-06-26 11:01:00,
2013-06-26 07:06:00,69.7,65.3,29.83,WSW,245,6.6,12.0,86,0.00,SCT,OVC,0.00,12.0,WeatherDisplay:10.37,2013-06-26 11:06:00,
2013-06-26 07:11:00,69.6,64.9,29.83,WSW,239,5.7,11.5,85,0.00,SCT,OVC,0.00,18.0,WeatherDisplay:10.37,2013-06-26 11:11:00,
2013-06-26 07:16:00,69.5,64.8,29.84,WSW,241,6.7,13.0,85,0.00,SCT,OVC,0.00,18.0,WeatherDisplay:10.37,2013-06-26 11:16:00,
2013-06-26 07:21:00,69.5,64.8,29.83,WSW,251,3.5,13.8,85,0.00,SCT,OVC,0.00,16.0,WeatherDisplay:10.37,2013-06-26 11:21:00,
2013-06-26 07:26:00,69.5,64.8,29.84,West,274,4.2,7.0,85,0.00,SCT,OVC,0.00,25.0,WeatherDisplay:10.37,2013-06-26 11:26:00,
2013-06-26 07:31:00,69.5,64.8,29.83,WSW,258,7.6,13.0,85,0.00,SCT,OVC,0.00,30.0,WeatherDisplay:10.37,2013-06-26 11:31:00,
2013-06-26 07:36:00,69.4,64.7,29.84,West,261,5.4,10.4,85,0.00,SCT,OVC,0.00,21.0,WeatherDisplay:10.37,2013-06-26 11:36:00,
2013-06-26 07:41:00,69.4,64.7,29.83,WSW,244,3.0,8.1,85,0.00,SCT,OVC,0.00,23.0,WeatherDisplay:10.37,2013-06-26 11:41:00,
2013-06-26 07:46:00,69.4,65.0,29.83,SW,236,3.8,11.5,86,0.00,SCT,OVC,0.00,23.0,WeatherDisplay:10.37,2013-06-26 11:46:00,
2013-06-26 07:51:00,69.3,64.9,29.83,WSW,238,1.5,5.8,86,0.00,SCT,OVC,0.00,14.0,WeatherDisplay:10.37,2013-06-26 11:51:00,
2013-06-26 07:56:00,69.3,64.9,29.83,WSW,250,5.7,12.0,86,0.00,SCT,OVC,0.00,37.0,WeatherDisplay:10.37,2013-06-26 11:56:00,
2013-06-26 08:01:00,69.3,64.9,29.83,WSW,256,2.3,12.7,86,0.00,SCT,OVC,0.00,69.0,WeatherDisplay:10.37,2013-06-26 12:01:00,
2013-06-26 08:06:00,69.4,65.0,29.83,West,261,0.7,3.5,86,0.00,SCT,OVC,0.00,69.0,WeatherDisplay:10.37,2013-06-26 12:06:00,
2013-06-26 08:11:00,69.5,65.1,29.83,West,259,3.6,9.2,86,0.00,SCT,OVC,0.00,90.0,WeatherDisplay:10.37,2013-06-26 12:11:00,
2013-06-26 08:16:00,69.6,65.6,29.83,West,259,0.9,3.5,87,0.00,SCT,OVC,0.00,113.0,WeatherDisplay:10.37,2013-06-26 12:16:00,
2013-06-26 08:21:00,69.7,65.7,29.83,WSW,256,1.4,8.1,87,0.00,OVC,,0.00,113.0,WeatherDisplay:10.37,2013-06-26 12:21:00,
2013-06-26 08:26:00,69.9,65.5,29.82,West,262,4.0,11.5,86,0.00,OVC,,0.00,137.0,WeatherDisplay:10.37,2013-06-26 12:26:00,
2013-06-26 08:31:00,70.1,65.7,29.82,West,259,3.2,8.1,86,0.00,OVC,,0.00,148.0,WeatherDisplay:10.37,2013-06-26 12:31:00,
2013-06-26 08:36:00,70.3,65.9,29.82,WSW,255,4.1,8.1,86,0.00,OVC,,0.00,181.0,WeatherDisplay:10.37,2013-06-26 12:36:00,
2013-06-26 08:41:00,70.5,65.8,29.82,WSW,255,1.0,4.6,85,0.00,OVC,,0.00,176.0,WeatherDisplay:10.37,2013-06-26 12:41:00,
2013-06-26 08:46:00,70.7,66.0,29.82,WSW,246,3.3,9.0,85,0.00,OVC,,0.00,162.0,WeatherDisplay:10.37,2013-06-26 12:46:00,
2013-06-26 08:51:00,70.9,65.8,29.82,WSW,246,4.5,8.1,84,0.00,OVC,,0.00,162.0,WeatherDisplay:10.37,2013-06-26 12:51:00,
2013-06-26 08:56:00,71.0,65.9,29.82,WSW,244,0.7,4.6,84,0.00,OVC,,0.00,202.0,WeatherDisplay:10.37,2013-06-26 12:56:00,
2013-06-26 09:01:00,71.3,66.2,29.82,WSW,240,5.5,9.0,84,0.00,BKN,OVC,0.00,334.0,WeatherDisplay:10.37,2013-06-26 13:01:00,
2013-06-26 09:06:00,71.6,66.2,29.82,WSW,247,5.4,8.1,83,0.00,BKN,OVC,0.00,371.0,WeatherDisplay:10.37,2013-06-26 13:06:00,
2013-06-26 09:11:00,71.9,66.5,29.82,WSW,252,5.3,9.2,83,0.00,BKN,OVC,0.00,311.0,WeatherDisplay:10.37,2013-06-26 13:11:00,
2013-06-26 09:16:00,72.2,66.7,29.82,WSW,249,0.9,8.0,83,0.00,BKN,OVC,0.00,269.0,WeatherDisplay:10.37,2013-06-26 13:16:00,
2013-06-26 09:21:00,72.5,66.7,29.83,WSW,242,2.0,8.1,82,0.00,BKN,OVC,0.00,267.0,WeatherDisplay:10.37,2013-06-26 13:21:00,
2013-06-26 09:26:00,72.6,66.4,29.82,WSW,239,3.3,9.2,81,0.00,BKN,OVC,0.00,290.0,WeatherDisplay:10.37,2013-06-26 13:26:00,
2013-06-26 09:31:00,72.8,66.6,29.82,WSW,250,4.7,10.4,81,0.00,BKN,OVC,0.00,315.0,WeatherDisplay:10.37,2013-06-26 13:31:00,
2013-06-26 09:36:00,72.9,66.4,29.83,West,265,5.3,10.0,80,0.00,BKN,OVC,0.00,213.0,WeatherDisplay:10.37,2013-06-26 13:36:00,
2013-06-26 09:41:00,72.9,66.4,29.83,WSW,255,2.4,10.4,80,0.00,BKN,OVC,0.00,172.0,WeatherDisplay:10.37,2013-06-26 13:41:00,
2013-06-26 09:46:00,72.8,66.3,29.83,West,279,6.1,14.0,80,0.00,BKN,OVC,0.00,209.0,WeatherDisplay:10.37,2013-06-26 13:46:00,
2013-06-26 09:51:00,72.8,65.9,29.83,West,261,6.6,13.0,79,0.00,BKN,OVC,0.00,288.0,WeatherDisplay:10.37,2013-06-26 13:51:00,
2013-06-26 09:56:00,72.9,66.4,29.83,West,260,6.3,11.5,80,0.00,BKN,OVC,0.00,343.0,WeatherDisplay:10.37,2013-06-26 13:56:00,
2013-06-26 10:01:00,73.1,66.6,29.83,West,261,6.4,9.2,80,0.00,SCT,OVC,0.00,455.0,WeatherDisplay:10.37,2013-06-26 14:01:00,
2013-06-26 10:06:00,73.3,66.8,29.83,WSW,251,5.4,13.0,80,0.00,SCT,OVC,0.00,369.0,WeatherDisplay:10.37,2013-06-26 14:06:00,
2013-06-26 10:11:00,73.5,66.6,29.82,West,265,5.3,13.0,79,0.00,SCT,OVC,0.00,828.0,WeatherDisplay:10.37,2013-06-26 14:11:00,
2013-06-26 10:16:00,73.8,66.9,29.82,WSW,252,4.7,12.7,79,0.00,SCT,OVC,0.00,844.0,WeatherDisplay:10.37,2013-06-26 14:16:00,
2013-06-26 10:21:00,74.1,67.2,29.83,WSW,252,8.9,13.0,79,0.00,SCT,OVC,0.00,796.0,WeatherDisplay:10.37,2013-06-26 14:21:00,
2013-06-26 10:26:00,74.2,66.5,29.83,West,260,8.8,14.0,77,0.00,SCT,OVC,0.00,499.0,WeatherDisplay:10.37,2013-06-26 14:26:00,
2013-06-26 10:31:00,74.4,67.1,29.83,WSW,244,7.4,13.0,78,0.00,SCT,OVC,0.00,844.0,WeatherDisplay:10.37,2013-06-26 14:31:00,
2013-06-26 10:36:00,74.6,67.3,29.83,WSW,244,6.4,17.3,78,0.00,SCT,OVC,0.00,844.0,WeatherDisplay:10.37,2013-06-26 14:36:00,
2013-06-26 10:41:00,74.6,67.3,29.83,WNW,285,5.1,19.6,78,0.00,SCT,OVC,0.00,294.0,WeatherDisplay:10.37,2013-06-26 14:41:00,
2013-06-26 10:46:00,74.8,67.5,29.83,WNW,288,4.4,10.4,78,0.00,SCT,OVC,0.00,367.0,WeatherDisplay:10.37,2013-06-26 14:46:00,
2013-06-26 10:51:00,74.9,67.2,29.84,West,267,4.8,12.7,77,0.00,SCT,OVC,0.00,353.0,WeatherDisplay:10.37,2013-06-26 14:51:00,
2013-06-26 10:56:00,74.7,67.0,29.84,West,281,7.3,14.0,77,0.00,SCT,OVC,0.00,401.0,WeatherDisplay:10.37,2013-06-26 14:56:00,
2013-06-26 11:01:00,74.7,67.4,29.84,WSW,248,5.5,15.0,78,0.00,BKN,OVC,0.00,373.0,WeatherDisplay:10.37,2013-06-26 15:01:00,
2013-06-26 11:06:00,74.6,67.3,29.84,West,259,7.2,10.4,78,0.00,BKN,OVC,0.00,369.0,WeatherDisplay:10.37,2013-06-26 15:06:00,
2013-06-26 11:11:00,74.3,67.0,29.84,West,267,4.6,11.5,78,0.00,BKN,OVC,0.00,480.0,WeatherDisplay:10.37,2013-06-26 15:11:00,
2013-06-26 11:16:00,74.2,67.3,29.84,WSW,247,5.2,11.0,79,0.00,BKN,OVC,0.00,543.0,WeatherDisplay:10.37,2013-06-26 15:16:00,
2013-06-26 11:21:00,74.2,66.9,29.84,WSW,247,11.0,16.1,78,0.00,BKN,OVC,0.00,388.0,WeatherDisplay:10.37,2013-06-26 15:21:00,
2013-06-26 11:26:00,73.8,66.9,29.84,SW,227,7.1,16.1,79,0.00,BKN,OVC,0.00,455.0,WeatherDisplay:10.37,2013-06-26 15:26:00,
2013-06-26 11:31:00,73.7,66.8,29.84,West,265,5.6,15.0,79,0.00,BKN,OVC,0.00,378.0,WeatherDisplay:10.37,2013-06-26 15:31:00,
2013-06-26 11:36:00,73.7,66.8,29.84,WSW,257,3.0,11.5,79,0.00,BKN,OVC,0.00,369.0,WeatherDisplay:10.37,2013-06-26 15:36:00,
2013-06-26 11:41:00,73.8,67.2,29.85,West,273,4.6,10.0,80,0.00,BKN,OVC,0.00,392.0,WeatherDisplay:10.37,2013-06-26 15:41:00,
2013-06-26 11:46:00,73.8,67.2,29.85,West,263,1.8,9.2,80,0.00,BKN,OVC,0.00,318.0,WeatherDisplay:10.37,2013-06-26 15:46:00,
2013-06-26 11:51:00,74.0,67.4,29.85,West,276,2.8,11.5,80,0.00,BKN,OVC,0.00,345.0,WeatherDisplay:10.37,2013-06-26 15:51:00,
2013-06-26 11:56:00,74.0,67.4,29.85,WSW,252,5.6,11.5,80,0.00,BKN,OVC,0.00,478.0,WeatherDisplay:10.37,2013-06-26 15:56:00,
2013-06-26 12:01:00,74.1,67.5,29.85,West,261,7.1,13.0,80,0.00,BKN,OVC,0.00,448.0,WeatherDisplay:10.37,2013-06-26 16:01:00,
2013-06-26 12:06:00,74.0,67.1,29.84,WSW,244,6.0,12.0,79,0.00,OVC,,0.00,399.0,WeatherDisplay:10.37,2013-06-26 16:06:00,
2013-06-26 12:11:00,74.1,67.5,29.84,WSW,256,5.1,12.7,80,0.00,OVC,,0.00,1085.0,WeatherDisplay:10.37,2013-06-26 16:11:00,
2013-06-26 12:16:00,74.5,68.3,29.84,WSW,243,4.9,10.4,81,0.00,OVC,,0.00,780.0,WeatherDisplay:10.37,2013-06-26 16:16:00,
2013-06-26 12:21:00,75.2,68.6,29.84,West,272,6.2,12.7,80,0.00,OVC,,0.00,684.0,WeatherDisplay:10.37,2013-06-26 16:21:00,
2013-06-26 12:26:00,75.5,68.5,29.84,West,279,6.3,15.0,79,0.00,OVC,,0.00,584.0,WeatherDisplay:10.37,2013-06-26 16:26:00,
2013-06-26 12:31:00,75.5,68.2,29.84,WSW,257,7.9,12.7,78,0.00,OVC,,0.00,418.0,WeatherDisplay:10.37,2013-06-26 16:31:00,
2013-06-26 12:36:00,75.2,68.2,29.84,WSW,248,7.2,12.0,79,0.00,OVC,,0.00,478.0,WeatherDisplay:10.37,2013-06-26 16:36:00,
2013-06-26 12:41:00,75.1,68.1,29.84,WSW,248,7.7,12.0,79,0.00,OVC,,0.00,302.0,WeatherDisplay:10.37,2013-06-26 16:41:00,
2013-06-26 12:46:00,74.9,67.9,29.84,WSW,256,6.9,11.5,79,0.00,OVC,,0.00,387.0,WeatherDisplay:10.37,2013-06-26 16:46:00,
2013-06-26 12:51:00,74.8,68.2,29.84,West,265,3.5,6.9,80,0.00,OVC,,0.00,390.0,WeatherDisplay:10.37,2013-06-26 16:51:00,
2013-06-26 12:56:00,74.9,68.3,29.84,South,187,5.2,11.5,80,0.00,OVC,,0.00,352.0,WeatherDisplay:10.37,2013-06-26 16:56:00,
2013-06-26 13:01:00,74.9,67.9,29.84,SW,236,5.3,9.2,79,0.00,OVC,,0.00,448.0,WeatherDisplay:10.37,2013-06-26 17:01:00,
2013-06-26 13:06:00,75.1,68.1,29.84,WSW,249,6.7,14.0,79,0.00,OVC,,0.00,534.0,WeatherDisplay:10.37,2013-06-26 17:06:00,
2013-06-26 13:11:00,75.3,68.0,29.84,WSW,248,9.1,11.5,78,0.00,OVC,,0.00,527.0,WeatherDisplay:10.37,2013-06-26 17:11:00,
2013-06-26 13:16:00,75.6,68.3,29.83,WSW,255,5.8,11.5,78,0.00,OVC,,0.00,550.0,WeatherDisplay:10.37,2013-06-26 17:16:00,
2013-06-26 13:21:00,75.7,68.4,29.83,WSW,257,5.0,11.5,78,0.00,BKN,OVC,0.00,427.0,WeatherDisplay:10.37,2013-06-26 17:21:00,
2013-06-26 13:26:00,75.9,68.5,29.83,SW,229,5.7,13.8,78,0.00,BKN,OVC,0.00,1116.0,WeatherDisplay:10.37,2013-06-26 17:26:00,
2013-06-26 13:31:00,76.3,69.3,29.84,WSW,258,1.2,10.4,79,0.00,BKN,OVC,0.00,383.0,WeatherDisplay:10.37,2013-06-26 17:31:00,
2013-06-26 13:36:00,76.6,69.2,29.84,West,265,7.6,12.0,78,0.00,BKN,OVC,0.00,434.0,WeatherDisplay:10.37,2013-06-26 17:36:00,
2013-06-26 13:41:00,76.7,68.9,29.84,West,266,4.4,10.4,77,0.00,BKN,OVC,0.00,1021.0,WeatherDisplay:10.37,2013-06-26 17:41:00,
2013-06-26 13:46:00,77.0,69.2,29.84,West,260,6.8,15.0,77,0.00,BKN,OVC,0.00,983.0,WeatherDisplay:10.37,2013-06-26 17:46:00,
2013-06-26 13:51:00,77.5,70.1,29.84,West,260,2.7,11.5,78,0.00,SCT,OVC,0.00,962.0,WeatherDisplay:10.37,2013-06-26 17:51:00,
2013-06-26 13:56:00,77.9,69.3,29.83,WSW,257,6.6,12.0,75,0.00,SCT,OVC,0.00,925.0,WeatherDisplay:10.37,2013-06-26 17:56:00,
2013-06-26 14:01:00,78.0,69.4,29.83,West,266,4.3,11.5,75,0.00,SCT,OVC,0.00,939.0,WeatherDisplay:10.37,2013-06-26 18:01:00,
2013-06-26 14:06:00,78.4,69.0,29.84,West,275,10.7,16.1,73,0.00,SCT,OVC,0.00,919.0,WeatherDisplay:10.37,2013-06-26 18:06:00,
2013-06-26 14:11:00,78.5,69.1,29.84,West,265,8.0,15.0,73,0.00,SCT,OVC,0.00,895.0,WeatherDisplay:10.37,2013-06-26 18:11:00,
2013-06-26 14:16:00,78.6,69.6,29.84,West,269,5.3,17.3,74,0.00,SCT,OVC,0.00,902.0,WeatherDisplay:10.37,2013-06-26 18:16:00,
2013-06-26 14:21:00,78.5,69.1,29.84,WNW,298,4.9,12.7,73,0.00,SCT,OVC,0.00,909.0,WeatherDisplay:10.37,2013-06-26 18:21:00,
2013-06-26 14:26:00,78.6,69.2,29.84,West,275,6.3,13.0,73,0.00,SCT,OVC,0.00,896.0,WeatherDisplay:10.37,2013-06-26 18:26:00,
2013-06-26 14:31:00,78.5,68.7,29.84,West,281,8.3,17.3,72,0.00,SCT,OVC,0.00,888.0,WeatherDisplay:10.37,2013-06-26 18:31:00,
2013-06-26 14:36:00,78.1,68.3,29.84,WSW,254,10.7,16.1,72,0.00,SCT,OVC,0.00,868.0,WeatherDisplay:10.37,2013-06-26 18:36:00,
2013-06-26 14:41:00,77.6,68.3,29.84,West,270,5.5,15.0,73,0.00,SCT,OVC,0.00,863.0,WeatherDisplay:10.37,2013-06-26 18:41:00,
2013-06-26 14:46:00,77.7,68.0,29.83,WSW,252,3.6,17.3,72,0.00,SCT,OVC,0.00,858.0,WeatherDisplay:10.37,2013-06-26 18:46:00,
2013-06-26 14:51:00,77.8,67.6,29.83,WSW,254,9.2,13.0,71,0.00,SCT,OVC,0.00,846.0,WeatherDisplay:10.37,2013-06-26 18:51:00,
2013-06-26 14:56:00,77.8,67.6,29.83,SW,229,8.2,16.1,71,0.00,SCT,OVC,0.00,837.0,WeatherDisplay:10.37,2013-06-26 18:56:00,
2013-06-26 15:01:00,77.6,66.6,29.83,West,259,11.1,17.3,69,0.00,SCT,OVC,0.00,835.0,WeatherDisplay:10.37,2013-06-26 19:01:00,
2013-06-26 15:06:00,77.4,66.8,29.83,West,266,5.4,11.5,70,0.00,SCT,OVC,0.00,823.0,WeatherDisplay:10.37,2013-06-26 19:06:00,
2013-06-26 15:11:00,77.7,67.1,29.83,WNW,297,8.8,13.0,70,0.00,SCT,OVC,0.00,812.0,WeatherDisplay:10.37,2013-06-26 19:11:00,
2013-06-26 15:16:00,77.7,66.7,29.83,WSW,248,6.1,17.3,69,0.00,SCT,OVC,0.00,805.0,WeatherDisplay:10.37,2013-06-26 19:16:00,
2013-06-26 15:21:00,77.8,67.6,29.83,WNW,288,4.1,12.7,71,0.00,SCT,OVC,0.00,798.0,WeatherDisplay:10.37,2013-06-26 19:21:00,
2013-06-26 15:26:00,78.0,67.0,29.83,WSW,247,7.6,13.0,69,0.00,SCT,OVC,0.00,788.0,WeatherDisplay:10.37,2013-06-26 19:26:00,
2013-06-26 15:31:00,78.2,67.6,29.83,West,280,5.3,11.5,70,0.00,SCT,OVC,0.00,780.0,WeatherDisplay:10.37,2013-06-26 19:31:00,
2013-06-26 15:36:00,78.3,66.9,29.83,WSW,245,7.8,16.1,68,0.00,SCT,OVC,0.00,773.0,WeatherDisplay:10.37,2013-06-26 19:36:00,
2013-06-26 15:41:00,78.4,67.4,29.82,SW,236,2.5,9.2,69,0.00,SCT,OVC,0.00,766.0,WeatherDisplay:10.37,2013-06-26 19:41:00,
2013-06-26 15:46:00,78.6,66.7,29.82,WSW,250,4.5,11.5,67,0.00,SCT,OVC,0.00,759.0,WeatherDisplay:10.37,2013-06-26 19:46:00,
2013-06-26 15:51:00,78.8,66.9,29.82,West,260,3.1,13.8,67,0.00,SCT,OVC,0.00,751.0,WeatherDisplay:10.37,2013-06-26 19:51:00,
2013-06-26 15:56:00,79.1,66.8,29.82,WSW,257,6.4,13.0,66,0.00,SCT,OVC,0.00,740.0,WeatherDisplay:10.37,2013-06-26 19:56:00,
2013-06-26 16:01:00,79.0,65.8,29.82,WSW,246,9.6,20.0,64,0.00,SCT,OVC,0.00,733.0,WeatherDisplay:10.37,2013-06-26 20:01:00,
2013-06-26 16:06:00,79.0,66.2,29.82,West,259,4.6,10.0,65,0.00,SCT,OVC,0.00,719.0,WeatherDisplay:10.37,2013-06-26 20:06:00,
2013-06-26 16:11:00,79.3,66.1,29.82,WSW,249,7.6,12.0,64,0.00,SCT,OVC,0.00,710.0,WeatherDisplay:10.37,2013-06-26 20:11:00,
2013-06-26 16:16:00,79.5,66.3,29.82,WSW,248,2.5,10.4,64,0.00,SCT,OVC,0.00,698.0,WeatherDisplay:10.37,2013-06-26 20:16:00,
2013-06-26 16:21:00,79.8,66.5,29.82,West,279,4.3,9.2,64,0.00,SCT,OVC,0.00,694.0,WeatherDisplay:10.37,2013-06-26 20:21:00,
2013-06-26 16:26:00,79.9,65.7,29.82,WNW,295,8.4,13.0,62,0.00,SCT,OVC,0.00,684.0,WeatherDisplay:10.37,2013-06-26 20:26:00,
2013-06-26 16:31:00,79.8,65.6,29.81,West,261,3.4,9.2,62,0.00,SCT,OVC,0.00,686.0,WeatherDisplay:10.37,2013-06-26 20:31:00,
2013-06-26 16:36:00,79.9,66.2,29.82,West,263,7.7,15.0,63,0.00,SCT,OVC,0.00,564.0,WeatherDisplay:10.37,2013-06-26 20:36:00,
2013-06-26 16:41:00,79.7,65.5,29.82,WSW,246,5.8,11.0,62,0.00,SCT,OVC,0.00,612.0,WeatherDisplay:10.37,2013-06-26 20:41:00,
2013-06-26 16:46:00,79.7,66.0,29.82,WSW,257,2.1,12.7,63,0.00,SCT,OVC,0.00,647.0,WeatherDisplay:10.37,2013-06-26 20:46:00,
2013-06-26 16:51:00,79.8,66.1,29.82,WSW,254,6.0,13.8,63,0.00,SCT,OVC,0.00,622.0,WeatherDisplay:10.37,2013-06-26 20:51:00,
2013-06-26 16:56:00,79.8,66.5,29.81,WSW,250,5.4,10.4,64,0.00,SCT,OVC,0.00,603.0,WeatherDisplay:10.37,2013-06-26 20:56:00,
2013-06-26 17:01:00,79.9,67.1,29.81,WNW,299,4.2,10.4,65,0.00,SCT,OVC,0.00,584.0,WeatherDisplay:10.37,2013-06-26 21:01:00,
2013-06-26 17:06:00,80.0,67.2,29.81,West,261,5.3,8.1,65,0.00,SCT,OVC,0.00,578.0,WeatherDisplay:10.37,2013-06-26 21:06:00,
2013-06-26 17:11:00,80.1,67.3,29.81,West,280,6.2,14.0,65,0.00,SCT,OVC,0.00,554.0,WeatherDisplay:10.37,2013-06-26 21:11:00,
2013-06-26 17:16:00,80.0,67.2,29.81,WNW,300,4.2,12.0,65,0.00,SCT,OVC,0.00,543.0,WeatherDisplay:10.37,2013-06-26 21:16:00,
2013-06-26 17:21:00,79.8,67.0,29.81,WNW,297,3.0,9.2,65,0.00,SCT,OVC,0.00,534.0,WeatherDisplay:10.37,2013-06-26 21:21:00,
2013-06-26 17:26:00,79.6,66.8,29.81,WNW,293,4.2,10.4,65,0.00,SCT,OVC,0.00,517.0,WeatherDisplay:10.37,2013-06-26 21:26:00,
2013-06-26 17:31:00,79.5,66.7,29.81,West,275,3.1,12.7,65,0.00,SCT,OVC,0.00,515.0,WeatherDisplay:10.37,2013-06-26 21:31:00,
2013-06-26 17:36:00,79.3,66.5,29.81,West,267,2.4,10.0,65,0.00,SCT,OVC,0.00,496.0,WeatherDisplay:10.37,2013-06-26 21:36:00,
2013-06-26 17:41:00,79.2,66.0,29.80,WSW,249,4.2,12.7,64,0.00,SCT,OVC,0.00,482.0,WeatherDisplay:10.37,2013-06-26 21:41:00,
2013-06-26 17:46:00,79.1,66.3,29.80,WSW,256,4.3,11.5,65,0.00,SCT,OVC,0.00,471.0,WeatherDisplay:10.37,2013-06-26 21:46:00,
2013-06-26 17:51:00,79.0,65.8,29.81,WSW,252,3.8,11.5,64,0.00,SCT,OVC,0.00,443.0,WeatherDisplay:10.37,2013-06-26 21:51:00,
2013-06-26 17:56:00,78.9,66.1,29.80,WSW,258,4.4,9.2,65,0.00,SCT,OVC,0.00,429.0,WeatherDisplay:10.37,2013-06-26 21:56:00,
2013-06-26 18:01:00,78.9,65.7,29.80,West,260,2.4,9.2,64,0.00,SCT,OVC,0.00,420.0,WeatherDisplay:10.37,2013-06-26 22:01:00,
2013-06-26 18:06:00,78.8,66.0,29.80,West,279,0.3,11.5,65,0.00,SCT,OVC,0.00,413.0,WeatherDisplay:10.37,2013-06-26 22:06:00,
2013-06-26 18:11:00,78.9,66.6,29.80,West,278,3.4,7.0,66,0.00,SCT,OVC,0.00,422.0,WeatherDisplay:10.37,2013-06-26 22:11:00,
2013-06-26 18:16:00,79.0,66.7,29.80,West,277,0.3,3.5,66,0.00,SCT,OVC,0.00,390.0,WeatherDisplay:10.37,2013-06-26 22:16:00,
2013-06-26 18:21:00,79.1,66.8,29.80,West,279,2.4,9.2,66,0.00,SCT,OVC,0.00,364.0,WeatherDisplay:10.37,2013-06-26 22:21:00,
2013-06-26 18:26:00,79.0,66.2,29.80,West,265,2.2,6.0,65,0.00,SCT,OVC,0.00,341.0,WeatherDisplay:10.37,2013-06-26 22:26:00,
2013-06-26 18:31:00,78.9,66.1,29.80,West,263,1.8,8.1,65,0.00,SCT,OVC,0.00,330.0,WeatherDisplay:10.37,2013-06-26 22:31:00,
2013-06-26 18:36:00,78.7,65.9,29.80,West,260,1.1,9.2,65,0.00,SCT,OVC,0.00,306.0,WeatherDisplay:10.37,2013-06-26 22:36:00,
2013-06-26 18:41:00,78.4,65.7,29.80,WSW,257,5.9,10.4,65,0.00,SCT,OVC,0.00,287.0,WeatherDisplay:10.37,2013-06-26 22:41:00,
2013-06-26 18:46:00,78.2,65.9,29.80,WSW,254,0.5,8.1,66,0.00,SCT,OVC,0.00,278.0,WeatherDisplay:10.37,2013-06-26 22:46:00,
2013-06-26 18:51:00,78.1,65.8,29.80,WSW,250,3.2,10.4,66,0.00,SCT,OVC,0.00,265.0,WeatherDisplay:10.37,2013-06-26 22:51:00,
2013-06-26 18:56:00,77.9,65.6,29.80,WSW,252,2.2,5.0,66,0.00,SCT,OVC,0.00,86.0,WeatherDisplay:10.37,2013-06-26 22:56:00,
2013-06-26 19:01:00,77.7,65.9,29.80,WSW,254,0.1,3.5,67,0.00,SCT,OVC,0.00,83.0,WeatherDisplay:10.37,2013-06-26 23:01:00,
2013-06-26 19:06:00,77.5,65.7,29.80,WSW,254,3.0,7.0,67,0.00,SCT,OVC,0.00,171.0,WeatherDisplay:10.37,2013-06-26 23:06:00,
2013-06-26 19:11:00,77.2,65.8,29.80,WSW,254,0.8,4.0,68,0.00,SCT,OVC,0.00,197.0,WeatherDisplay:10.37,2013-06-26 23:11:00,
2013-06-26 19:16:00,77.2,65.8,29.80,WSW,254,0.1,3.5,68,0.00,SCT,OVC,0.00,183.0,WeatherDisplay:10.37,2013-06-26 23:16:00,
2013-06-26 19:21:00,77.2,66.2,29.80,WSW,254,0.3,3.5,69,0.00,SCT,OVC,0.00,171.0,WeatherDisplay:10.37,2013-06-26 23:21:00,
2013-06-26 19:26:00,77.3,65.5,29.80,WSW,254,1.0,4.6,67,0.00,SCT,OVC,0.00,151.0,WeatherDisplay:10.37,2013-06-26 23:26:00,
2013-06-26 19:31:00,77.4,65.6,29.79,WSW,254,0.4,3.5,67,0.00,SCT,OVC,0.00,134.0,WeatherDisplay:10.37,2013-06-26 23:31:00,
2013-06-26 19:36:00,77.3,65.5,29.79,WSW,254,0.2,3.5,67,0.00,SCT,OVC,0.00,102.0,WeatherDisplay:10.37,2013-06-26 23:36:00,
2013-06-26 19:41:00,77.3,65.9,29.79,WSW,254,0.0,1.2,68,0.00,SCT,OVC,0.00,97.0,WeatherDisplay:10.37,2013-06-26 23:41:00,
2013-06-26 19:46:00,77.3,66.3,29.79,WSW,254,0.1,3.5,69,0.00,SCT,OVC,0.00,72.0,WeatherDisplay:10.37,2013-06-26 23:46:00,
2013-06-26 19:51:00,77.1,65.3,29.79,WSW,254,1.0,4.0,67,0.00,SCT,OVC,0.00,46.0,WeatherDisplay:10.37,2013-06-26 23:51:00,
2013-06-26 19:56:00,76.8,64.6,29.79,WSW,252,0.0,1.2,66,0.00,SCT,OVC,0.00,40.0,WeatherDisplay:10.37,2013-06-26 23:56:00,
2013-06-26 20:01:00,76.6,64.8,29.79,WSW,252,0.0,0.0,67,0.00,SCT,OVC,0.00,40.0,WeatherDisplay:10.37,2013-06-27 00:01:00,
2013-06-26 20:06:00,76.4,65.1,29.79,WSW,252,0.0,0.0,68,0.00,BKN,OVC,0.00,37.0,WeatherDisplay:10.37,2013-06-27 00:06:00,
2013-06-26 20:11:00,76.2,65.3,29.79,WSW,252,0.0,0.0,69,0.00,BKN,OVC,0.00,33.0,WeatherDisplay:10.37,2013-06-27 00:11:00,
2013-06-26 20:16:00,76.0,65.1,29.80,WSW,252,0.0,0.0,69,0.00,BKN,OVC,0.00,33.0,WeatherDisplay:10.37,2013-06-27 00:16:00,
2013-06-26 20:21:00,75.8,64.9,29.79,WSW,252,0.0,0.0,69,0.00,BKN,OVC,0.00,32.0,WeatherDisplay:10.37,2013-06-27 00:21:00,
2013-06-26 20:26:00,75.6,65.1,29.79,WSW,252,0.0,0.0,70,0.00,BKN,OVC,0.00,28.0,WeatherDisplay:10.37,2013-06-27 00:26:00,
2013-06-26 20:31:00,75.3,65.2,29.79,WSW,252,0.0,0.0,71,0.00,BKN,OVC,0.00,25.0,WeatherDisplay:10.37,2013-06-27 00:31:00,
2013-06-26 20:36:00,75.1,65.5,29.79,WSW,252,0.0,0.0,72,0.00,BKN,OVC,0.00,21.0,WeatherDisplay:10.37,2013-06-27 00:36:00,
2013-06-26 20:41:00,74.9,65.3,29.79,WSW,252,0.0,0.0,72,0.00,BKN,OVC,0.00,14.0,WeatherDisplay:10.37,2013-06-27 00:41:00,
2013-06-26 20:46:00,74.7,65.5,29.78,WSW,252,0.0,0.0,73,0.00,BKN,OVC,0.00,11.0,WeatherDisplay:10.37,2013-06-27 00:46:00,
2013-06-26 20:51:00,74.4,65.2,29.78,WSW,252,0.0,0.0,73,0.00,BKN,OVC,0.00,5.0,WeatherDisplay:10.37,2013-06-27 00:51:00,
2013-06-26 20:56:00,74.1,64.9,29.79,WSW,252,0.0,0.0,73,0.00,BKN,OVC,0.00,0.0,WeatherDisplay:10.37,2013-06-27 00:56:00,
2013-06-26 21:01:00,73.8,65.0,29.79,WSW,252,0.0,0.0,74,0.00,BKN,OVC,0.00,0.0,WeatherDisplay:10.37,2013-06-27 01:01:00,
2013-06-26 21:06:00,73.4,64.6,29.79,WSW,252,0.0,0.0,74,0.00,BKN,OVC,0.00,0.0,WeatherDisplay:10.37,2013-06-27 01:06:00,
2013-06-26 21:11:00,72.9,64.1,29.79,WSW,252,0.0,0.0,74,0.00,BKN,OVC,0.00,0.0,WeatherDisplay:10.37,2013-06-27 01:11:00,
2013-06-26 21:16:00,72.5,63.7,29.79,WSW,252,0.2,1.2,74,0.00,BKN,OVC,0.00,0.0,WeatherDisplay:10.37,2013-06-27 01:16:00,
2013-06-26 21:21:00,72.0,63.6,29.80,WSW,252,0.0,1.2,75,0.00,BKN,OVC,0.00,0.0,WeatherDisplay:10.37,2013-06-27 01:21:00,
2013-06-26 21:26:00,71.7,63.4,29.80,WSW,252,0.0,0.0,75,0.00,BKN,OVC,0.00,0.0,WeatherDisplay:10.37,2013-06-27 01:26:00,
2013-06-26 21:31:00,71.4,63.1,29.79,WSW,252,0.1,2.3,75,0.00,BKN,OVC,0.00,0.0,WeatherDisplay:10.37,2013-06-27 01:31:00,
2013-06-26 21:36:00,71.2,63.2,29.80,WSW,252,0.1,1.2,76,0.00,BKN,OVC,0.00,0.0,WeatherDisplay:10.37,2013-06-27 01:36:00,
2013-06-26 21:41:00,71.1,63.1,29.80,WSW,252,0.1,1.2,76,0.00,BKN,OVC,0.00,0.0,WeatherDisplay:10.37,2013-06-27 01:41:00,
2013-06-26 21:46:00,71.1,63.1,29.80,WSW,252,0.0,0.0,76,0.00,BKN,OVC,0.00,0.0,WeatherDisplay:10.37,2013-06-27 01:46:00,
2013-06-26 21:51:00,71.0,63.4,29.80,WSW,252,0.0,0.0,77,0.00,BKN,OVC,0.00,0.0,WeatherDisplay:10.37,2013-06-27 01:51:00,
2013-06-26 21:56:00,71.0,63.4,29.80,WSW,252,0.0,2.3,77,0.00,BKN,OVC,0.00,0.0,WeatherDisplay:10.37,2013-06-27 01:56:00,
2013-06-26 22:01:00,71.0,63.8,29.80,WSW,252,0.0,0.0,78,0.00,BKN,OVC,0.00,0.0,WeatherDisplay:10.37,2013-06-27 02:01:00,
2013-06-26 22:06:00,71.0,63.8,29.80,WSW,252,0.0,0.0,78,0.00,BKN,OVC,0.00,0.0,WeatherDisplay:10.37,2013-06-27 02:06:00,
2013-06-26 22:11:00,71.0,64.2,29.80,WSW,252,0.0,0.0,79,0.00,BKN,OVC,0.00,0.0,WeatherDisplay:10.37,2013-06-27 02:11:00,
2013-06-26 22:16:00,71.0,64.5,29.80,WSW,252,0.0,0.0,80,0.00,BKN,OVC,0.00,0.0,WeatherDisplay:10.37,2013-06-27 02:16:00,
2013-06-26 22:21:00,70.8,64.3,29.80,WSW,252,0.0,0.0,80,0.00,BKN,OVC,0.00,0.0,WeatherDisplay:10.37,2013-06-27 02:21:00,
2013-06-26 22:26:00,70.7,64.2,29.80,WSW,252,0.1,1.2,80,0.00,BKN,OVC,0.00,0.0,WeatherDisplay:10.37,2013-06-27 02:26:00,
2013-06-26 22:31:00,70.5,64.0,29.80,WSW,252,0.1,1.2,80,0.00,BKN,OVC,0.00,0.0,WeatherDisplay:10.37,2013-06-27 02:31:00,
2013-06-26 22:36:00,70.4,63.6,29.80,WSW,252,0.1,2.3,79,0.00,BKN,OVC,0.00,0.0,WeatherDisplay:10.37,2013-06-27 02:36:00,
2013-06-26 22:41:00,70.3,63.5,29.80,WSW,252,0.3,2.0,79,0.00,BKN,OVC,0.00,0.0,WeatherDisplay:10.37,2013-06-27 02:41:00,
2013-06-26 22:46:00,70.3,63.5,29.79,WSW,252,0.0,3.5,79,0.00,BKN,OVC,0.00,0.0,WeatherDisplay:10.37,2013-06-27 02:46:00,
2013-06-26 22:51:00,70.3,63.5,29.80,WSW,252,0.0,2.3,79,0.00,BKN,OVC,0.00,0.0,WeatherDisplay:10.37,2013-06-27 02:51:00,
2013-06-26 22:56:00,70.4,63.2,29.80,WSW,252,0.1,1.2,78,0.00,BKN,OVC,0.00,0.0,WeatherDisplay:10.37,2013-06-27 02:56:00,
2013-06-26 23:01:00,70.4,63.2,29.80,WSW,252,0.0,0.0,78,0.00,BKN,OVC,0.00,0.0,WeatherDisplay:10.37,2013-06-27 03:01:00,
2013-06-26 23:06:00,70.5,63.3,29.80,WSW,252,0.0,0.0,78,0.00,OVC,,0.00,0.0,WeatherDisplay:10.37,2013-06-27 03:06:00,
2013-06-26 23:11:00,70.6,63.4,29.81,WSW,252,0.0,0.0,78,0.00,OVC,,0.00,0.0,WeatherDisplay:10.37,2013-06-27 03:11:00,
2013-06-26 23:16:00,70.7,63.9,29.80,WSW,252,0.0,0.0,79,0.00,OVC,,0.00,0.0,WeatherDisplay:10.37,2013-06-27 03:16:00,
2013-06-26 23:21:00,70.8,64.3,29.80,WSW,252,0.0,0.0,80,0.00,OVC,,0.00,0.0,WeatherDisplay:10.37,2013-06-27 03:21:00,
2013-06-26 23:26:00,70.8,64.0,29.80,WSW,252,0.0,0.0,79,0.00,OVC,,0.00,0.0,WeatherDisplay:10.37,2013-06-27 03:26:00,
2013-06-26 23:31:00,70.8,64.0,29.80,WSW,252,0.0,0.0,79,0.00,OVC,,0.00,0.0,WeatherDisplay:10.37,2013-06-27 03:31:00,
2013-06-26 23:36:00,70.8,64.0,29.80,WSW,252,0.0,0.0,79,0.00,OVC,,0.00,0.0,WeatherDisplay:10.37,2013-06-27 03:36:00,
2013-06-26 23:41:00,70.8,64.0,29.80,WSW,252,0.0,0.0,79,0.00,OVC,,0.00,0.0,WeatherDisplay:10.37,2013-06-27 03:41:00,
2013-06-26 23:46:00,70.8,64.3,29.80,WSW,252,0.0,0.0,80,0.00,OVC,,0.00,0.0,WeatherDisplay:10.37,2013-06-27 03:46:00,
2013-06-26 23:51:00,70.8,64.3,29.80,WSW,252,0.0,0.0,80,0.00,OVC,,0.00,0.0,WeatherDisplay:10.37,2013-06-27 03:51:00,
2013-06-26 23:56:00,70.8,64.3,29.79,WSW,252,0.0,0.0,80,0.00,OVC,,0.00,0.0,WeatherDisplay:10.37,2013-06-27 03:56:00,